Time,TemperatureF,DewpointF,PressureIn,WindDirection,WindDirectionDegrees,WindSpeedMPH,WindSpeedGustMPH,Humidity,HourlyPrecipIn,Conditions,Clouds,dailyrainin,SolarRadiationWatts/m^2,SoftwareType,DateUTC
2013-02-11 00:00:00,47.1,36.3,29.75,ENE,61,1.0,5.0,66,0.00,RA,,0.00,0.0,WeatherDisplay:10.37,2013-02-10 22:00:00,
2013-02-11 00:05:00,46.9,36.2,29.75,NE,45,3.5,3.5,66,0.00,RA,,0.00,0.0,WeatherDisplay:10.37,2013-02-10 22:05:00,
2013-02-11 00:10:00,46.8,36.0,29.76,NE,45,2.2,0.0,66,0.00,RA,,0.00,0.0,WeatherDisplay:10.37,2013-02-10 22:10:00,
2013-02-11 00:15:00,46.6,35.8,29.76,NE,45,1.1,1.1,66,0.00,BKN,,0.00,0.0,WeatherDisplay:10.37,2013-02-10 22:15:00,
2013-02-11 00:20:00,46.6,36.2,29.76,NE,45,0.0,0.0,67,0.00,BKN,,0.00,0.0,WeatherDisplay:10.37,2013-02-10 22:20:00,
2013-02-11 00:25:00,46.6,35.8,29.76,NNW,338,0.0,0.0,66,0.00,BKN,,0.00,0.0,WeatherDisplay:10.37,2013-02-10 22:25:00,
2013-02-11 00:30:00,46.8,36.0,29.76,NNE,22,0.0,0.0,66,0.00,BKN,,0.00,0.0,WeatherDisplay:10.37,2013-02-10 22:30:00,
2013-02-11 00:35:00,46.9,36.2,29.76,West,270,0.0,0.0,66,0.00,BKN,,0.00,0.0,WeatherDisplay:10.37,2013-02-10 22:35:00,
2013-02-11 00:40:00,46.9,36.2,29.76,West,269,0.0,0.0,66,0.00,BKN,,0.00,0.0,WeatherDisplay:10.37,2013-02-10 22:40:00,
2013-02-11 00:45:00,46.9,36.2,29.76,WSW,257,0.0,0.0,66,0.00,BKN,,0.00,0.0,WeatherDisplay:10.37,2013-02-10 22:45:00,
2013-02-11 00:50:00,47.0,36.2,29.76,West,265,0.0,2.0,66,0.00,BKN,,0.00,0.0,WeatherDisplay:10.37,2013-02-10 22:50:00,
2013-02-11 00:55:00,47.1,36.3,29.75,West,270,0.0,0.0,66,0.00,BKN,,0.00,0.0,WeatherDisplay:10.37,2013-02-10 22:55:00,
2013-02-11 01:00:00,46.9,36.2,29.76,West,270,0.0,0.0,66,0.00,BKN,,0.00,0.0,WeatherDisplay:10.37,2013-02-10 23:00:00,
2013-02-11 01:05:00,46.9,36.2,29.75,West,270,0.0,0.0,66,0.00,BKN,,0.00,0.0,WeatherDisplay:10.37,2013-02-10 23:05:00,
2013-02-11 01:10:00,46.9,36.2,29.75,West,270,0.0,0.0,66,0.00,BKN,,0.00,0.0,WeatherDisplay:10.37,2013-02-10 23:10:00,
2013-02-11 01:15:00,46.9,36.5,29.76,West,265,0.0,0.0,67,0.00,BKN,,0.00,0.0,WeatherDisplay:10.37,2013-02-10 23:15:00,
2013-02-11 01:20:00,46.9,36.2,29.75,West,272,0.0,0.0,66,0.00,BKN,,0.00,0.0,WeatherDisplay:10.37,2013-02-10 23:20:00,
2013-02-11 01:25:00,46.8,36.1,29.75,WNW,301,0.0,0.0,66,0.00,BKN,,0.00,0.0,WeatherDisplay:10.37,2013-02-10 23:25:00,
2013-02-11 01:30:00,46.9,36.2,29.75,NW,305,0.0,0.0,66,0.00,BKN,,0.00,0.0,WeatherDisplay:10.37,2013-02-10 23:30:00,
2013-02-11 01:35:00,46.8,35.6,29.75,NW,315,0.0,0.0,65,0.00,BKN,,0.00,0.0,WeatherDisplay:10.37,2013-02-10 23:35:00,
2013-02-11 01:40:00,46.8,35.6,29.75,NNW,338,0.0,0.0,65,0.00,BKN,,0.00,0.0,WeatherDisplay:10.37,2013-02-10 23:40:00,
2013-02-11 01:45:00,46.8,36.0,29.75,East,85,0.0,0.0,66,0.00,BKN,,0.00,0.0,WeatherDisplay:10.37,2013-02-10 23:45:00,
2013-02-11 01:50:00,46.6,35.8,29.75,ESE,104,0.0,0.0,66,0.00,BKN,,0.00,0.0,WeatherDisplay:10.37,2013-02-10 23:50:00,
2013-02-11 01:55:00,46.6,36.2,29.74,ESE,105,0.0,0.0,67,0.00,BKN,,0.00,0.0,WeatherDisplay:10.37,2013-02-10 23:55:00,
2013-02-11 02:00:00,46.2,36.2,29.74,ESE,112,0.0,0.0,68,0.00,BKN,,0.00,0.0,WeatherDisplay:10.37,2013-02-11 00:00:00,
2013-02-11 02:05:00,46.2,36.2,29.74,ESE,113,0.0,0.0,68,0.00,FEW,,0.00,0.0,WeatherDisplay:10.37,2013-02-11 00:05:00,
2013-02-11 02:10:00,46.0,36.1,29.74,East,89,0.0,0.0,68,0.00,FEW,,0.00,0.0,WeatherDisplay:10.37,2013-02-11 00:10:00,
2013-02-11 02:15:00,45.7,35.7,29.74,ENE,59,0.0,0.0,68,0.00,FEW,,0.00,0.0,WeatherDisplay:10.37,2013-02-11 00:15:00,
2013-02-11 02:20:00,45.7,36.1,29.74,NNE,22,0.0,0.0,69,0.00,FEW,,0.00,0.0,WeatherDisplay:10.37,2013-02-11 00:20:00,
2013-02-11 02:25:00,45.7,36.1,29.74,NNE,22,0.0,0.0,69,0.00,FEW,,0.00,0.0,WeatherDisplay:10.37,2013-02-11 00:25:00,
2013-02-11 02:30:00,45.7,36.1,29.74,NE,45,0.0,0.0,69,0.00,FEW,,0.00,0.0,WeatherDisplay:10.37,2013-02-11 00:30:00,
2013-02-11 02:35:00,45.7,36.1,29.74,ESE,112,0.0,0.0,69,0.00,FEW,,0.00,0.0,WeatherDisplay:10.37,2013-02-11 00:35:00,
2013-02-11 02:40:00,45.5,36.3,29.74,SE,135,0.0,0.0,70,0.00,FEW,,0.00,0.0,WeatherDisplay:10.37,2013-02-11 00:40:00,
2013-02-11 02:45:00,45.3,36.1,29.74,SE,135,0.0,0.0,70,0.00,FEW,,0.00,0.0,WeatherDisplay:10.37,2013-02-11 00:45:00,
2013-02-11 02:50:00,45.3,36.1,29.74,SE,135,0.0,0.0,70,0.00,FEW,,0.00,0.0,WeatherDisplay:10.37,2013-02-11 00:50:00,
2013-02-11 02:55:00,45.1,35.9,29.74,South,180,0.0,0.0,70,0.00,FEW,,0.00,0.0,WeatherDisplay:10.37,2013-02-11 00:55:00,
2013-02-11 03:00:00,45.0,36.1,29.74,SSE,164,0.0,0.0,71,0.00,FEW,,0.00,0.0,WeatherDisplay:10.37,2013-02-11 01:00:00,
2013-02-11 03:05:00,44.8,35.9,29.74,South,180,0.0,0.0,71,0.00,FEW,,0.00,0.0,WeatherDisplay:10.37,2013-02-11 01:05:00,
2013-02-11 03:10:00,45.0,36.1,29.74,SSW,202,0.0,0.0,71,0.00,FEW,,0.00,0.0,WeatherDisplay:10.37,2013-02-11 01:10:00,
2013-02-11 03:15:00,45.1,36.3,29.75,SSE,158,0.0,0.0,71,0.00,FEW,,0.00,0.0,WeatherDisplay:10.37,2013-02-11 01:15:00,
2013-02-11 03:20:00,45.1,36.3,29.74,SSW,202,0.0,0.0,71,0.00,FEW,,0.00,0.0,WeatherDisplay:10.37,2013-02-11 01:20:00,
2013-02-11 03:25:00,45.1,36.6,29.74,SSW,202,2.3,2.3,72,0.00,FEW,,0.00,0.0,WeatherDisplay:10.37,2013-02-11 01:25:00,
2013-02-11 03:30:00,45.3,36.8,29.73,SSW,202,2.3,2.3,72,0.00,FEW,,0.00,0.0,WeatherDisplay:10.37,2013-02-11 01:30:00,
2013-02-11 03:35:00,45.3,36.8,29.73,SW,225,2.3,2.3,72,0.00,FEW,,0.00,0.0,WeatherDisplay:10.37,2013-02-11 01:35:00,
2013-02-11 03:40:00,45.3,36.8,29.74,SW,225,2.3,2.3,72,0.00,FEW,,0.00,0.0,WeatherDisplay:10.37,2013-02-11 01:40:00,
2013-02-11 03:45:00,45.5,37.0,29.74,SW,225,2.3,2.3,72,0.00,FEW,,0.00,0.0,WeatherDisplay:10.37,2013-02-11 01:45:00,
2013-02-11 03:50:00,45.3,37.2,29.74,SW,225,3.5,3.5,73,0.00,FEW,,0.00,0.0,WeatherDisplay:10.37,2013-02-11 01:50:00,
2013-02-11 03:55:00,45.3,37.2,29.74,WSW,248,4.0,4.0,73,0.00,FEW,,0.00,0.0,WeatherDisplay:10.37,2013-02-11 01:55:00,
2013-02-11 04:00:00,45.3,37.2,29.74,SSW,202,0.0,0.3,73,0.00,FEW,,0.00,0.0,WeatherDisplay:10.37,2013-02-11 02:00:00,
2013-02-11 04:05:00,45.1,37.0,29.74,West,270,0.0,0.0,73,0.00,FEW,,0.00,0.0,WeatherDisplay:10.37,2013-02-11 02:05:00,
2013-02-11 04:10:00,45.1,37.0,29.74,NW,315,0.0,0.0,73,0.00,FEW,,0.00,0.0,WeatherDisplay:10.37,2013-02-11 02:10:00,
2013-02-11 04:15:00,45.1,37.0,29.74,North,0,0.0,0.0,73,0.00,FEW,,0.00,0.0,WeatherDisplay:10.37,2013-02-11 02:15:00,
2013-02-11 04:20:00,45.1,37.0,29.74,WNW,292,0.0,0.0,73,0.00,FEW,,0.00,0.0,WeatherDisplay:10.37,2013-02-11 02:20:00,
2013-02-11 04:25:00,45.1,37.0,29.74,WNW,292,2.3,0.0,73,0.00,FEW,,0.00,0.0,WeatherDisplay:10.37,2013-02-11 02:25:00,
2013-02-11 04:30:00,45.1,37.0,29.74,West,270,3.5,3.5,73,0.00,FEW,,0.00,0.0,WeatherDisplay:10.37,2013-02-11 02:30:00,
2013-02-11 04:35:00,45.0,36.8,29.74,South,180,2.3,2.3,73,0.00,FEW,,0.00,0.0,WeatherDisplay:10.37,2013-02-11 02:35:00,
2013-02-11 04:40:00,45.0,36.8,29.74,SW,225,5.8,5.8,73,0.00,FEW,,0.00,0.0,WeatherDisplay:10.37,2013-02-11 02:40:00,
2013-02-11 04:45:00,45.1,37.0,29.74,WNW,292,4.9,4.9,73,0.00,FEW,,0.00,0.0,WeatherDisplay:10.37,2013-02-11 02:45:00,
2013-02-11 04:50:00,45.3,36.8,29.74,West,270,5.8,5.8,72,0.00,FEW,,0.00,0.0,WeatherDisplay:10.37,2013-02-11 02:50:00,
2013-02-11 04:55:00,45.3,36.8,29.74,WNW,292,5.8,5.8,72,0.00,FEW,,0.00,0.0,WeatherDisplay:10.37,2013-02-11 02:55:00,
2013-02-11 05:00:00,45.3,36.8,29.74,West,270,5.8,5.8,72,0.00,FEW,,0.00,0.0,WeatherDisplay:10.37,2013-02-11 03:00:00,
2013-02-11 05:05:00,45.3,36.8,29.74,West,270,4.6,4.6,72,0.00,FEW,,0.00,0.0,WeatherDisplay:10.37,2013-02-11 03:05:00,
2013-02-11 05:10:00,45.3,36.8,29.74,WNW,292,3.5,3.5,72,0.00,FEW,,0.00,0.0,WeatherDisplay:10.37,2013-02-11 03:10:00,
2013-02-11 05:15:00,45.1,36.6,29.74,WSW,248,4.6,4.6,72,0.00,FEW,,0.00,0.0,WeatherDisplay:10.37,2013-02-11 03:15:00,
2013-02-11 05:20:00,45.1,36.6,29.74,NW,315,3.5,3.5,72,0.00,FEW,,0.00,0.0,WeatherDisplay:10.37,2013-02-11 03:20:00,
2013-02-11 05:25:00,45.1,36.6,29.74,SSW,202,6.3,6.3,72,0.00,FEW,,0.00,0.0,WeatherDisplay:10.37,2013-02-11 03:25:00,
2013-02-11 05:30:00,45.1,36.3,29.75,WNW,292,11.5,11.5,71,0.00,FEW,,0.00,0.0,WeatherDisplay:10.37,2013-02-11 03:30:00,
2013-02-11 05:35:00,45.3,36.5,29.75,WNW,292,8.1,8.1,71,0.00,FEW,,0.00,0.0,WeatherDisplay:10.37,2013-02-11 03:35:00,
2013-02-11 05:40:00,45.3,36.1,29.75,NW,315,3.5,3.5,70,0.00,FEW,,0.00,0.0,WeatherDisplay:10.37,2013-02-11 03:40:00,
2013-02-11 05:45:00,45.1,35.9,29.75,SW,225,3.8,3.8,70,0.00,FEW,,0.00,0.0,WeatherDisplay:10.37,2013-02-11 03:45:00,
2013-02-11 05:50:00,45.1,35.6,29.75,WNW,292,4.6,4.6,69,0.00,FEW,,0.00,0.0,WeatherDisplay:10.37,2013-02-11 03:50:00,
2013-02-11 05:55:00,45.1,35.2,29.75,WNW,292,14.5,14.5,68,0.00,FEW,,0.00,0.0,WeatherDisplay:10.37,2013-02-11 03:55:00,
2013-02-11 06:00:00,45.1,35.2,29.74,SW,225,8.1,8.1,68,0.00,FEW,,0.00,0.0,WeatherDisplay:10.37,2013-02-11 04:00:00,
2013-02-11 06:05:00,45.1,34.8,29.74,WNW,292,3.8,3.8,67,0.00,FEW,,0.00,0.0,WeatherDisplay:10.37,2013-02-11 04:05:00,
2013-02-11 06:10:00,45.1,34.8,29.74,West,270,8.1,8.1,67,0.00,FEW,,0.00,0.0,WeatherDisplay:10.37,2013-02-11 04:10:00,
2013-02-11 06:15:00,45.1,34.5,29.75,West,270,4.6,4.6,66,0.00,FEW,,0.00,0.0,WeatherDisplay:10.37,2013-02-11 04:15:00,
2013-02-11 06:20:00,45.1,34.5,29.75,NW,315,3.5,3.5,66,0.00,FEW,,0.00,0.0,WeatherDisplay:10.37,2013-02-11 04:20:00,
2013-02-11 06:25:00,45.1,34.5,29.75,WNW,292,6.9,6.9,66,0.00,FEW,,0.00,0.0,WeatherDisplay:10.37,2013-02-11 04:25:00,
2013-02-11 06:30:00,45.1,34.5,29.75,West,270,2.3,2.3,66,0.00,FEW,,0.00,0.0,WeatherDisplay:10.37,2013-02-11 04:30:00,
2013-02-11 06:35:00,45.1,34.1,29.76,NNW,338,5.8,5.8,65,0.00,FEW,,0.00,0.0,WeatherDisplay:10.37,2013-02-11 04:35:00,
2013-02-11 06:40:00,45.1,34.1,29.76,North,0,5.6,5.6,65,0.00,FEW,,0.00,0.0,WeatherDisplay:10.37,2013-02-11 04:40:00,
2013-02-11 06:45:00,45.1,34.1,29.77,WSW,248,3.5,3.5,65,0.00,FEW,,0.00,0.0,WeatherDisplay:10.37,2013-02-11 04:45:00,
2013-02-11 06:50:00,45.1,34.1,29.77,NNW,338,0.0,0.0,65,0.00,FEW,,0.00,0.0,WeatherDisplay:10.37,2013-02-11 04:50:00,
2013-02-11 06:55:00,45.0,33.9,29.77,West,270,4.6,4.6,65,0.00,FEW,,0.00,0.0,WeatherDisplay:10.37,2013-02-11 04:55:00,
2013-02-11 07:00:00,45.0,33.9,29.77,SW,225,3.5,3.5,65,0.00,FEW,,0.00,0.0,WeatherDisplay:10.37,2013-02-11 05:00:00,
2013-02-11 07:05:00,44.8,33.7,29.77,SW,225,5.8,5.8,65,0.00,FEW,,0.00,0.0,WeatherDisplay:10.37,2013-02-11 05:05:00,
2013-02-11 07:10:00,44.6,33.6,29.78,West,270,1.1,0.0,65,0.00,FEW,,0.00,0.0,WeatherDisplay:10.37,2013-02-11 05:10:00,
2013-02-11 07:15:00,44.4,33.4,29.78,West,270,4.6,4.6,65,0.00,FEW,,0.00,0.0,WeatherDisplay:10.37,2013-02-11 05:15:00,
2013-02-11 07:20:00,44.4,33.4,29.78,West,270,4.2,4.2,65,0.00,FEW,,0.00,0.0,WeatherDisplay:10.37,2013-02-11 05:20:00,
2013-02-11 07:25:00,44.6,33.6,29.78,WNW,292,1.1,1.1,65,0.00,FEW,,0.00,0.0,WeatherDisplay:10.37,2013-02-11 05:25:00,
2013-02-11 07:30:00,44.6,33.6,29.78,West,270,5.8,5.8,65,0.00,FEW,,0.00,0.0,WeatherDisplay:10.37,2013-02-11 05:30:00,
2013-02-11 07:35:00,44.8,33.3,29.78,NNW,338,3.5,3.5,64,0.00,FEW,,0.00,0.0,WeatherDisplay:10.37,2013-02-11 05:35:00,
2013-02-11 07:40:00,45.0,33.5,29.78,WNW,292,3.5,3.5,64,0.00,FEW,,0.00,0.0,WeatherDisplay:10.37,2013-02-11 05:40:00,
2013-02-11 07:45:00,45.3,33.9,29.79,NW,315,3.5,3.5,64,0.00,FEW,,0.00,0.0,WeatherDisplay:10.37,2013-02-11 05:45:00,
2013-02-11 07:50:00,45.5,34.0,29.79,WNW,292,3.5,3.5,64,0.00,FEW,,0.00,0.0,WeatherDisplay:10.37,2013-02-11 05:50:00,
2013-02-11 07:55:00,45.7,34.2,29.79,NW,315,5.8,5.8,64,0.00,FEW,,0.00,0.0,WeatherDisplay:10.37,2013-02-11 05:55:00,
2013-02-11 08:00:00,45.7,34.2,29.79,NW,315,8.1,8.1,64,0.00,FEW,,0.00,0.0,WeatherDisplay:10.37,2013-02-11 06:00:00,
2013-02-11 08:05:00,46.0,34.5,29.80,West,270,6.9,6.9,64,0.00,FEW,,0.00,0.0,WeatherDisplay:10.37,2013-02-11 06:05:00,
2013-02-11 08:10:00,46.0,34.1,29.80,WSW,248,9.2,9.2,63,0.00,FEW,,0.00,0.0,WeatherDisplay:10.37,2013-02-11 06:10:00,
2013-02-11 08:15:00,46.2,33.9,29.81,NW,315,11.5,11.5,62,0.00,FEW,,0.00,0.0,WeatherDisplay:10.37,2013-02-11 06:15:00,
2013-02-11 08:20:00,46.4,34.1,29.81,North,0,6.9,6.9,62,0.00,FEW,,0.00,0.0,WeatherDisplay:10.37,2013-02-11 06:20:00,
2013-02-11 08:25:00,46.6,34.2,29.81,ENE,68,6.9,6.9,62,0.00,FEW,,0.00,0.0,WeatherDisplay:10.37,2013-02-11 06:25:00,
2013-02-11 08:30:00,46.9,34.2,29.81,West,270,8.1,8.1,61,0.00,FEW,,0.00,0.0,WeatherDisplay:10.37,2013-02-11 06:30:00,
2013-02-11 08:35:00,47.1,34.4,29.81,WNW,292,9.2,9.2,61,0.00,FEW,,0.00,0.0,WeatherDisplay:10.37,2013-02-11 06:35:00,
2013-02-11 08:40:00,47.1,34.4,29.82,West,270,12.7,12.7,61,0.00,FEW,,0.00,0.0,WeatherDisplay:10.37,2013-02-11 06:40:00,
2013-02-11 08:45:00,47.3,34.5,29.82,NW,315,9.2,9.2,61,0.00,FEW,,0.00,0.0,WeatherDisplay:10.37,2013-02-11 06:45:00,
2013-02-11 08:50:00,47.7,34.4,29.82,WSW,248,9.2,9.2,60,0.00,FEW,,0.00,0.0,WeatherDisplay:10.37,2013-02-11 06:50:00,
2013-02-11 08:55:00,48.0,34.8,29.82,South,180,10.5,10.5,60,0.00,FEW,,0.00,0.0,WeatherDisplay:10.37,2013-02-11 06:55:00,
2013-02-11 09:00:00,48.0,34.4,29.83,NNW,338,12.7,12.7,59,0.00,FEW,,0.00,0.0,WeatherDisplay:10.37,2013-02-11 07:00:00,
2013-02-11 09:05:00,48.4,34.7,29.83,WSW,248,9.2,9.2,59,0.00,FEW,,0.00,0.0,WeatherDisplay:10.37,2013-02-11 07:05:00,
2013-02-11 09:10:00,48.7,35.0,29.83,West,270,6.9,6.9,59,0.00,FEW,,0.00,0.0,WeatherDisplay:10.37,2013-02-11 07:10:00,
2013-02-11 09:15:00,49.1,35.4,29.83,WSW,248,8.1,8.1,59,0.00,FEW,,0.00,0.0,WeatherDisplay:10.37,2013-02-11 07:15:00,
2013-02-11 09:20:00,49.3,35.5,29.83,NW,315,5.8,5.8,59,0.00,FEW,,0.00,0.0,WeatherDisplay:10.37,2013-02-11 07:20:00,
2013-02-11 09:25:00,49.6,35.5,29.84,WNW,292,10.4,10.4,58,0.00,FEW,,0.00,0.0,WeatherDisplay:10.37,2013-02-11 07:25:00,
2013-02-11 09:30:00,49.8,35.2,29.84,West,270,6.9,6.9,57,0.00,FEW,,0.00,0.0,WeatherDisplay:10.37,2013-02-11 07:30:00,
2013-02-11 09:35:00,50.2,35.1,29.85,NW,315,4.6,4.6,56,0.00,SCT,,0.00,0.0,WeatherDisplay:10.37,2013-02-11 07:35:00,
2013-02-11 09:40:00,49.8,34.3,29.84,NW,315,13.8,13.8,55,0.00,SCT,,0.00,0.0,WeatherDisplay:10.37,2013-02-11 07:40:00,
2013-02-11 09:45:00,50.2,34.6,29.84,NW,315,11.5,11.5,55,0.00,SCT,,0.00,0.0,WeatherDisplay:10.37,2013-02-11 07:45:00,
2013-02-11 09:50:00,50.2,34.6,29.84,NW,315,6.0,6.0,55,0.00,SCT,,0.00,0.0,WeatherDisplay:10.37,2013-02-11 07:50:00,
2013-02-11 09:55:00,50.7,34.7,29.84,NW,315,5.8,5.8,54,0.00,SCT,,0.00,0.0,WeatherDisplay:10.37,2013-02-11 07:55:00,
2013-02-11 10:00:00,50.9,33.9,29.85,NNW,338,11.5,11.5,52,0.00,SCT,,0.00,0.0,WeatherDisplay:10.37,2013-02-11 08:00:00,
2013-02-11 10:05:00,50.7,33.2,29.85,NW,315,9.2,9.2,51,0.00,SCT,,0.00,0.0,WeatherDisplay:10.37,2013-02-11 08:05:00,
2013-02-11 10:10:00,50.7,33.2,29.86,North,0,7.6,7.6,51,0.00,SCT,,0.00,0.0,WeatherDisplay:10.37,2013-02-11 08:10:00,
2013-02-11 10:15:00,50.9,32.9,29.87,West,270,4.6,4.6,50,0.00,SCT,,0.00,0.0,WeatherDisplay:10.37,2013-02-11 08:15:00,
2013-02-11 10:20:00,51.8,34.2,29.87,NW,315,12.7,12.7,51,0.00,SCT,,0.00,0.0,WeatherDisplay:10.37,2013-02-11 08:20:00,
2013-02-11 10:25:00,51.8,33.2,29.87,WNW,292,6.9,6.9,49,0.00,SCT,,0.00,0.0,WeatherDisplay:10.37,2013-02-11 08:25:00,
2013-02-11 10:30:00,51.8,33.2,29.88,NW,315,5.8,5.8,49,0.00,SCT,,0.00,0.0,WeatherDisplay:10.37,2013-02-11 08:30:00,
2013-02-11 10:35:00,51.8,33.2,29.87,NW,315,8.1,8.1,49,0.00,SCT,,0.00,0.0,WeatherDisplay:10.37,2013-02-11 08:35:00,
2013-02-11 10:40:00,51.6,33.1,29.88,NW,315,9.2,9.2,49,0.00,SCT,,0.00,0.0,WeatherDisplay:10.37,2013-02-11 08:40:00,
2013-02-11 10:45:00,51.6,33.1,29.88,West,270,5.8,5.8,49,0.00,SCT,,0.00,0.0,WeatherDisplay:10.37,2013-02-11 08:45:00,
2013-02-11 10:50:00,51.6,32.6,29.88,WNW,292,8.1,8.1,48,0.00,SCT,,0.00,0.0,WeatherDisplay:10.37,2013-02-11 08:50:00,
2013-02-11 10:55:00,51.8,32.7,29.88,NW,315,10.4,10.4,48,0.00,SCT,,0.00,0.0,WeatherDisplay:10.37,2013-02-11 08:55:00,
2013-02-11 11:00:00,51.6,32.6,29.88,NW,315,6.9,6.9,48,0.00,SCT,,0.00,0.0,WeatherDisplay:10.37,2013-02-11 09:00:00,
2013-02-11 11:05:00,51.8,32.7,29.88,West,270,5.8,5.8,48,0.00,SCT,,0.00,0.0,WeatherDisplay:10.37,2013-02-11 09:05:00,
2013-02-11 11:10:00,52.5,33.4,29.89,West,270,8.1,8.1,48,0.00,SCT,,0.00,0.0,WeatherDisplay:10.37,2013-02-11 09:10:00,
2013-02-11 11:15:00,52.9,33.2,29.89,WNW,292,3.5,3.5,47,0.00,SCT,,0.00,0.0,WeatherDisplay:10.37,2013-02-11 09:15:00,
2013-02-11 11:20:00,53.2,33.5,29.89,NW,315,4.6,4.6,47,0.00,SCT,,0.00,0.0,WeatherDisplay:10.37,2013-02-11 09:20:00,
2013-02-11 11:25:00,53.8,34.0,29.89,WSW,248,8.1,8.1,47,0.00,SCT,,0.00,0.0,WeatherDisplay:10.37,2013-02-11 09:25:00,
2013-02-11 11:30:00,53.8,34.0,29.89,NW,315,10.4,10.4,47,0.00,SCT,,0.00,0.0,WeatherDisplay:10.37,2013-02-11 09:30:00,
2013-02-11 11:35:00,53.8,33.5,29.89,ESE,112,2.3,2.3,46,0.00,SCT,,0.00,0.0,WeatherDisplay:10.37,2013-02-11 09:35:00,
2013-02-11 11:40:00,54.3,33.4,29.89,NNW,338,8.1,8.1,45,0.00,SCT,,0.00,0.0,WeatherDisplay:10.37,2013-02-11 09:40:00,
2013-02-11 11:45:00,53.4,32.6,29.89,NW,315,2.3,2.3,45,0.00,SCT,,0.00,0.0,WeatherDisplay:10.37,2013-02-11 09:45:00,
2013-02-11 11:50:00,53.2,31.9,29.89,NW,315,6.5,6.5,44,0.00,SCT,,0.00,0.0,WeatherDisplay:10.37,2013-02-11 09:50:00,
2013-02-11 11:55:00,53.1,31.7,29.89,NNW,338,10.4,10.4,44,0.00,SCT,,0.00,0.0,WeatherDisplay:10.37,2013-02-11 09:55:00,
2013-02-11 12:00:00,53.4,32.0,29.89,WSW,248,12.7,12.7,44,0.00,SCT,,0.00,0.0,WeatherDisplay:10.37,2013-02-11 10:00:00,
2013-02-11 12:05:00,54.0,32.0,29.89,WNW,292,10.4,10.4,43,0.00,SCT,,0.00,0.0,WeatherDisplay:10.37,2013-02-11 10:05:00,
2013-02-11 12:10:00,54.1,32.1,29.89,WNW,292,5.8,5.8,43,0.00,SCT,,0.00,0.0,WeatherDisplay:10.37,2013-02-11 10:10:00,
2013-02-11 12:15:00,54.7,32.6,29.89,NE,45,6.9,6.9,43,0.00,SCT,,0.00,0.0,WeatherDisplay:10.37,2013-02-11 10:15:00,
2013-02-11 12:20:00,55.2,15.9,29.88,WNW,292,11.5,11.5,21,0.00,SCT,,0.00,0.0,WeatherDisplay:10.37,2013-02-11 10:20:00,
2013-02-11 12:25:00,55.2,32.5,29.89,NW,315,10.4,10.4,42,0.00,SCT,,0.00,0.0,WeatherDisplay:10.37,2013-02-11 10:25:00,
2013-02-11 12:30:00,54.3,31.7,29.89,NW,315,9.2,9.2,42,0.00,SCT,,0.00,0.0,WeatherDisplay:10.37,2013-02-11 10:30:00,
2013-02-11 12:35:00,54.1,32.1,29.89,WSW,248,8.1,8.1,43,0.00,SCT,,0.00,0.0,WeatherDisplay:10.37,2013-02-11 10:35:00,
2013-02-11 12:40:00,54.3,32.3,29.89,West,270,9.2,9.2,43,0.00,SCT,,0.00,0.0,WeatherDisplay:10.37,2013-02-11 10:40:00,
2013-02-11 12:45:00,54.3,32.8,29.89,WSW,248,5.8,5.8,44,0.00,SCT,,0.00,0.0,WeatherDisplay:10.37,2013-02-11 10:45:00,
2013-02-11 12:50:00,54.3,32.3,29.89,WNW,292,6.9,6.9,43,0.00,SCT,,0.00,0.0,WeatherDisplay:10.37,2013-02-11 10:50:00,
2013-02-11 12:55:00,54.5,33.0,29.89,ENE,68,6.9,6.9,44,0.00,SCT,,0.00,0.0,WeatherDisplay:10.37,2013-02-11 10:55:00,
2013-02-11 13:00:00,55.0,33.5,29.89,WNW,292,9.2,9.2,44,0.00,SCT,,0.00,0.0,WeatherDisplay:10.37,2013-02-11 11:00:00,
2013-02-11 13:05:00,55.0,33.5,29.89,WNW,292,15.0,15.0,44,0.00,SCT,,0.00,0.0,WeatherDisplay:10.37,2013-02-11 11:05:00,
2013-02-11 13:10:00,54.3,33.4,29.88,SW,225,9.2,9.2,45,0.00,SCT,,0.00,0.0,WeatherDisplay:10.37,2013-02-11 11:10:00,
2013-02-11 13:15:00,54.1,33.8,29.88,NNW,338,5.8,5.8,46,0.00,SCT,,0.00,0.0,WeatherDisplay:10.37,2013-02-11 11:15:00,
2013-02-11 13:20:00,53.8,33.5,29.89,WNW,292,12.7,12.7,46,0.00,SCT,,0.00,0.0,WeatherDisplay:10.37,2013-02-11 11:20:00,
2013-02-11 13:25:00,53.2,33.5,29.89,WSW,248,8.1,8.1,47,0.00,SCT,,0.00,0.0,WeatherDisplay:10.37,2013-02-11 11:25:00,
2013-02-11 13:30:00,53.2,33.5,29.89,NNW,338,4.6,4.6,47,0.00,SCT,,0.00,0.0,WeatherDisplay:10.37,2013-02-11 11:30:00,
2013-02-11 13:35:00,53.2,33.5,29.88,North,0,6.9,6.9,47,0.00,SCT,,0.00,0.0,WeatherDisplay:10.37,2013-02-11 11:35:00,
2013-02-11 13:40:00,53.6,34.4,29.88,NW,315,4.6,4.6,48,0.00,SCT,,0.00,0.0,WeatherDisplay:10.37,2013-02-11 11:40:00,
2013-02-11 13:45:00,54.1,34.3,29.88,SW,225,9.2,9.2,47,0.00,SCT,,0.00,0.0,WeatherDisplay:10.37,2013-02-11 11:45:00,
2013-02-11 13:50:00,54.7,34.3,29.89,NW,315,9.2,9.2,46,0.00,SCT,,0.00,0.0,WeatherDisplay:10.37,2013-02-11 11:50:00,
2013-02-11 13:55:00,54.7,34.3,29.89,WSW,248,13.8,13.8,46,0.00,SCT,,0.00,0.0,WeatherDisplay:10.37,2013-02-11 11:55:00,
2013-02-11 14:00:00,55.2,34.8,29.89,WNW,292,8.1,8.1,46,0.00,SCT,,0.00,0.0,WeatherDisplay:10.37,2013-02-11 12:00:00,
2013-02-11 14:05:00,55.6,34.6,29.89,NNW,338,11.5,11.5,45,0.00,SCT,,0.00,0.0,WeatherDisplay:10.37,2013-02-11 12:05:00,
2013-02-11 14:10:00,55.2,34.2,29.89,NNW,338,9.2,9.2,45,0.00,SCT,,0.00,0.0,WeatherDisplay:10.37,2013-02-11 12:10:00,
2013-02-11 14:15:00,55.0,34.1,29.89,SW,225,4.6,4.6,45,0.00,SCT,,0.00,0.0,WeatherDisplay:10.37,2013-02-11 12:15:00,
2013-02-11 14:20:00,55.0,34.1,29.89,WSW,248,9.2,9.2,45,0.00,SCT,,0.00,0.0,WeatherDisplay:10.37,2013-02-11 12:20:00,
2013-02-11 14:25:00,54.9,33.9,29.88,WSW,248,11.5,11.5,45,0.00,SCT,,0.00,0.0,WeatherDisplay:10.37,2013-02-11 12:25:00,
2013-02-11 14:30:00,54.5,34.1,29.88,WSW,248,8.1,8.1,46,0.00,SCT,,0.00,0.0,WeatherDisplay:10.37,2013-02-11 12:30:00,
2013-02-11 14:35:00,54.7,34.3,29.88,SSE,158,9.2,9.2,46,0.00,SCT,,0.00,0.0,WeatherDisplay:10.37,2013-02-11 12:35:00,
2013-02-11 14:40:00,55.0,34.6,29.88,WSW,248,6.9,6.9,46,0.00,SCT,,0.00,0.0,WeatherDisplay:10.37,2013-02-11 12:40:00,
2013-02-11 14:45:00,55.4,34.9,29.89,SSE,158,8.1,8.1,46,0.00,SCT,,0.00,0.0,WeatherDisplay:10.37,2013-02-11 12:45:00,
2013-02-11 14:50:00,55.0,34.1,29.89,West,270,16.1,16.1,45,0.00,SCT,,0.00,0.0,WeatherDisplay:10.37,2013-02-11 12:50:00,
2013-02-11 14:55:00,54.1,33.8,29.89,West,270,12.7,12.7,46,0.00,SCT,,0.00,0.0,WeatherDisplay:10.37,2013-02-11 12:55:00,
2013-02-11 15:00:00,53.4,33.1,29.89,West,270,16.1,16.1,46,0.00,SCT,,0.00,0.0,WeatherDisplay:10.37,2013-02-11 13:00:00,
2013-02-11 15:05:00,52.9,32.6,29.89,WSW,248,8.1,8.1,46,0.00,SCT,,0.00,0.0,WeatherDisplay:10.37,2013-02-11 13:05:00,
2013-02-11 15:10:00,52.9,33.2,29.89,South,180,5.8,5.8,47,0.00,SCT,,0.00,0.0,WeatherDisplay:10.37,2013-02-11 13:10:00,
2013-02-11 15:15:00,53.1,33.3,29.89,WNW,292,5.8,5.8,47,0.00,SCT,,0.00,0.0,WeatherDisplay:10.37,2013-02-11 13:15:00,
2013-02-11 15:20:00,52.9,33.2,29.90,SSW,202,11.5,11.5,47,0.00,SCT,,0.00,0.0,WeatherDisplay:10.37,2013-02-11 13:20:00,
2013-02-11 15:25:00,53.4,33.7,29.90,West,270,9.8,9.8,47,0.00,SCT,,0.00,0.0,WeatherDisplay:10.37,2013-02-11 13:25:00,
2013-02-11 15:30:00,53.8,33.5,29.90,WNW,292,6.9,6.9,46,0.00,SCT,,0.00,0.0,WeatherDisplay:10.37,2013-02-11 13:30:00,
2013-02-11 15:36:00,54.1,33.2,29.89,NW,315,5.8,5.8,45,0.00,SCT,,0.00,0.0,WeatherDisplay:10.37,2013-02-11 13:36:00,
2013-02-11 15:41:00,54.1,33.2,29.89,SSE,158,9.2,9.2,45,0.00,SCT,,0.00,0.0,WeatherDisplay:10.37,2013-02-11 13:41:00,
2013-02-11 15:46:00,53.8,32.9,29.90,West,270,9.2,9.2,45,0.00,SCT,,0.00,0.0,WeatherDisplay:10.37,2013-02-11 13:46:00,
2013-02-11 15:51:00,53.4,32.6,29.90,SW,225,16.1,16.1,45,0.00,SCT,,0.00,0.0,WeatherDisplay:10.37,2013-02-11 13:51:00,
2013-02-11 15:56:00,53.2,31.9,29.91,WNW,292,8.1,8.1,44,0.00,SCT,,0.00,0.0,WeatherDisplay:10.37,2013-02-11 13:56:00,
2013-02-11 16:01:00,53.2,32.4,29.90,NW,315,10.4,10.4,45,0.00,SCT,,0.00,0.0,WeatherDisplay:10.37,2013-02-11 14:01:00,
2013-02-11 16:06:00,53.4,32.6,29.91,WNW,292,11.6,11.6,45,0.00,SCT,,0.00,0.0,WeatherDisplay:10.37,2013-02-11 14:06:00,
2013-02-11 16:11:00,53.8,32.4,29.91,SW,225,9.2,9.2,44,0.00,SCT,,0.00,0.0,WeatherDisplay:10.37,2013-02-11 14:11:00,
2013-02-11 16:16:00,53.4,32.0,29.91,WNW,292,9.2,11.6,44,0.00,SCT,,0.00,0.0,WeatherDisplay:10.37,2013-02-11 14:16:00,
2013-02-11 16:21:00,53.4,32.0,29.92,WNW,292,11.5,11.5,44,0.00,SCT,,0.00,0.0,WeatherDisplay:10.37,2013-02-11 14:21:00,
2013-02-11 16:26:00,54.0,32.5,29.91,West,270,6.9,6.9,44,0.00,SCT,,0.00,0.0,WeatherDisplay:10.37,2013-02-11 14:26:00,
2013-02-11 16:31:00,54.3,32.8,29.92,WNW,292,9.2,9.2,44,0.00,SCT,,0.00,0.0,WeatherDisplay:10.37,2013-02-11 14:31:00,
2013-02-11 16:36:00,54.3,32.3,29.92,WSW,248,8.9,8.9,43,0.00,SCT,,0.00,0.0,WeatherDisplay:10.37,2013-02-11 14:36:00,
2013-02-11 16:41:00,54.3,32.3,29.91,West,270,8.1,8.1,43,0.00,SCT,,0.00,0.0,WeatherDisplay:10.37,2013-02-11 14:41:00,
2013-02-11 16:46:00,54.1,32.1,29.92,West,270,6.9,6.9,43,0.00,SCT,,0.00,0.0,WeatherDisplay:10.37,2013-02-11 14:46:00,
2013-02-11 16:51:00,54.1,32.1,29.92,WNW,292,13.8,13.8,43,0.00,SCT,,0.00,0.0,WeatherDisplay:10.37,2013-02-11 14:51:00,
2013-02-11 16:56:00,53.8,32.4,29.92,WNW,292,4.6,4.6,44,0.00,SCT,,0.00,0.0,WeatherDisplay:10.37,2013-02-11 14:56:00,
2013-02-11 17:01:00,53.8,32.4,29.92,South,180,6.9,6.9,44,0.00,SCT,,0.00,0.0,WeatherDisplay:10.37,2013-02-11 15:01:00,
2013-02-11 17:06:00,53.4,32.0,29.92,West,270,4.5,4.5,44,0.00,SCT,,0.00,0.0,WeatherDisplay:10.37,2013-02-11 15:06:00,
2013-02-11 17:11:00,53.2,32.4,29.93,West,270,6.9,6.9,45,0.00,SCT,,0.00,0.0,WeatherDisplay:10.37,2013-02-11 15:11:00,
2013-02-11 17:16:00,52.9,31.5,29.93,NW,315,10.9,10.9,44,0.00,SCT,,0.00,0.0,WeatherDisplay:10.37,2013-02-11 15:16:00,
2013-02-11 17:21:00,52.9,32.1,29.93,NW,315,8.1,8.1,45,0.00,SCT,,0.00,0.0,WeatherDisplay:10.37,2013-02-11 15:21:00,
2013-02-11 17:26:00,52.7,31.9,29.93,NW,315,4.6,4.6,45,0.00,SCT,,0.00,0.0,WeatherDisplay:10.37,2013-02-11 15:26:00,
2013-02-11 17:31:00,52.5,32.3,29.93,WSW,248,6.5,6.5,46,0.00,SCT,,0.00,0.0,WeatherDisplay:10.37,2013-02-11 15:31:00,
2013-02-11 17:36:00,52.3,32.2,29.93,West,270,3.5,3.5,46,0.00,SCT,,0.00,0.0,WeatherDisplay:10.37,2013-02-11 15:36:00,
2013-02-11 17:41:00,52.3,32.7,29.93,NW,315,8.3,8.3,47,0.00,SCT,,0.00,0.0,WeatherDisplay:10.37,2013-02-11 15:41:00,
2013-02-11 17:46:00,51.6,32.0,29.93,NW,315,10.4,10.4,47,0.00,SCT,,0.00,0.0,WeatherDisplay:10.37,2013-02-11 15:46:00,
2013-02-11 17:51:00,51.4,32.4,29.94,WSW,248,6.9,6.9,48,0.00,SCT,,0.00,0.0,WeatherDisplay:10.37,2013-02-11 15:51:00,
2013-02-11 17:56:00,51.4,32.3,29.94,WNW,292,5.8,5.8,48,0.00,SCT,,0.00,0.0,WeatherDisplay:10.37,2013-02-11 15:56:00,
2013-02-11 18:01:00,50.7,32.2,29.94,NW,315,6.9,6.9,49,0.00,SCT,,0.00,0.0,WeatherDisplay:10.37,2013-02-11 16:01:00,
2013-02-11 18:06:00,50.5,32.1,29.94,West,270,5.8,5.8,49,0.00,SCT,,0.00,0.0,WeatherDisplay:10.37,2013-02-11 16:06:00,
2013-02-11 18:11:00,50.5,32.6,29.95,West,270,4.6,4.6,50,0.00,SCT,,0.00,0.0,WeatherDisplay:10.37,2013-02-11 16:11:00,
2013-02-11 18:16:00,50.2,32.7,29.95,WNW,292,6.0,6.0,51,0.00,SCT,,0.00,0.0,WeatherDisplay:10.37,2013-02-11 16:16:00,
2013-02-11 18:21:00,50.2,32.7,29.95,WNW,292,3.5,3.5,51,0.00,FEW,,0.00,0.0,WeatherDisplay:10.37,2013-02-11 16:21:00,
2013-02-11 18:26:00,50.0,33.1,29.95,West,270,4.5,4.5,52,0.00,FEW,,0.00,0.0,WeatherDisplay:10.37,2013-02-11 16:26:00,
2013-02-11 18:31:00,49.8,32.9,29.96,WSW,248,5.8,5.8,52,0.00,FEW,,0.00,0.0,WeatherDisplay:10.37,2013-02-11 16:31:00,
2013-02-11 18:36:00,49.6,32.7,29.96,NNW,338,5.8,5.8,52,0.00,FEW,,0.00,0.0,WeatherDisplay:10.37,2013-02-11 16:36:00,
2013-02-11 18:41:00,49.6,32.7,29.96,NW,315,4.6,4.6,52,0.00,FEW,,0.00,0.0,WeatherDisplay:10.37,2013-02-11 16:41:00,
2013-02-11 18:46:00,49.3,32.4,29.96,WNW,292,6.9,6.9,52,0.00,FEW,,0.00,0.0,WeatherDisplay:10.37,2013-02-11 16:46:00,
2013-02-11 18:51:00,49.3,32.4,29.97,NW,315,4.6,5.8,52,0.00,FEW,,0.00,0.0,WeatherDisplay:10.37,2013-02-11 16:51:00,
2013-02-11 18:56:00,49.1,32.2,29.97,WSW,248,2.3,2.3,52,0.00,FEW,,0.00,0.0,WeatherDisplay:10.37,2013-02-11 16:56:00,
2013-02-11 19:01:00,49.1,32.2,29.97,NNW,338,3.5,4.3,52,0.00,FEW,,0.00,0.0,WeatherDisplay:10.37,2013-02-11 17:01:00,
2013-02-11 19:06:00,48.9,32.0,29.97,WNW,292,6.9,6.9,52,0.00,FEW,,0.00,0.0,WeatherDisplay:10.37,2013-02-11 17:06:00,
2013-02-11 19:11:00,48.9,32.0,29.97,NW,315,4.0,4.0,52,0.00,FEW,,0.00,0.0,WeatherDisplay:10.37,2013-02-11 17:11:00,
2013-02-11 19:16:00,48.9,32.0,29.97,NW,315,6.9,6.9,52,0.00,FEW,,0.00,0.0,WeatherDisplay:10.37,2013-02-11 17:16:00,
2013-02-11 19:21:00,48.7,31.9,29.97,WNW,292,5.8,5.8,52,0.00,FEW,,0.00,0.0,WeatherDisplay:10.37,2013-02-11 17:21:00,
2013-02-11 19:26:00,48.7,31.9,29.98,NW,315,6.9,6.9,52,0.00,FEW,,0.00,0.0,WeatherDisplay:10.37,2013-02-11 17:26:00,
2013-02-11 19:31:00,48.7,31.9,29.98,WNW,292,8.1,8.1,52,0.00,FEW,,0.00,0.0,WeatherDisplay:10.37,2013-02-11 17:31:00,
2013-02-11 19:36:00,48.7,31.9,29.98,WSW,248,6.9,6.9,52,0.00,FEW,,0.00,0.0,WeatherDisplay:10.37,2013-02-11 17:36:00,
2013-02-11 19:41:00,48.7,32.4,29.98,NW,315,10.5,10.5,53,0.00,FEW,,0.00,0.0,WeatherDisplay:10.37,2013-02-11 17:41:00,
2013-02-11 19:46:00,48.6,32.2,29.98,WNW,292,5.8,5.8,53,0.00,FEW,,0.00,0.0,WeatherDisplay:10.37,2013-02-11 17:46:00,
2013-02-11 19:51:00,48.6,32.2,29.99,WNW,292,4.6,4.6,53,0.00,FEW,,0.00,0.0,WeatherDisplay:10.37,2013-02-11 17:51:00,
2013-02-11 19:56:00,48.4,32.0,29.98,NW,315,6.9,6.9,53,0.00,FEW,,0.00,0.0,WeatherDisplay:10.37,2013-02-11 17:56:00,
2013-02-11 20:01:00,48.4,32.5,29.98,NW,315,4.6,4.6,54,0.00,FEW,,0.00,0.0,WeatherDisplay:10.37,2013-02-11 18:01:00,
2013-02-11 20:06:00,48.2,32.3,29.99,WNW,292,2.3,2.3,54,0.00,FEW,,0.00,0.0,WeatherDisplay:10.37,2013-02-11 18:06:00,
2013-02-11 20:11:00,48.2,32.3,29.99,WNW,292,8.1,8.1,54,0.00,FEW,,0.00,0.0,WeatherDisplay:10.37,2013-02-11 18:11:00,
2013-02-11 20:16:00,48.2,32.8,29.99,South,180,8.1,8.1,55,0.00,FEW,,0.00,0.0,WeatherDisplay:10.37,2013-02-11 18:16:00,
2013-02-11 20:21:00,48.2,32.8,29.99,WSW,248,8.5,8.5,55,0.00,FEW,,0.00,0.0,WeatherDisplay:10.37,2013-02-11 18:21:00,
2013-02-11 20:26:00,48.0,32.6,29.99,WNW,292,4.7,4.7,55,0.00,FEW,,0.00,0.0,WeatherDisplay:10.37,2013-02-11 18:26:00,
2013-02-11 20:31:00,48.2,32.8,29.99,NW,315,6.9,8.4,55,0.00,FEW,,0.00,0.0,WeatherDisplay:10.37,2013-02-11 18:31:00,
2013-02-11 20:36:00,48.0,32.6,29.99,NW,315,5.8,5.8,55,0.00,FEW,,0.00,0.0,WeatherDisplay:10.37,2013-02-11 18:36:00,
2013-02-11 20:41:00,48.0,32.6,29.99,West,270,6.9,6.9,55,0.00,FEW,,0.00,0.0,WeatherDisplay:10.37,2013-02-11 18:41:00,
2013-02-11 20:46:00,48.0,32.6,29.99,NW,315,6.0,6.0,55,0.00,FEW,,0.00,0.0,WeatherDisplay:10.37,2013-02-11 18:46:00,
2013-02-11 20:51:00,48.0,32.6,29.99,NW,315,3.5,3.5,55,0.00,FEW,,0.00,0.0,WeatherDisplay:10.37,2013-02-11 18:51:00,
2013-02-11 20:56:00,48.0,32.6,29.99,NNW,338,1.1,1.1,55,0.00,FEW,,0.00,0.0,WeatherDisplay:10.37,2013-02-11 18:56:00,
2013-02-11 21:01:00,48.0,32.6,29.99,WSW,248,6.9,6.9,55,0.00,FEW,,0.00,0.0,WeatherDisplay:10.37,2013-02-11 19:01:00,
2013-02-11 21:06:00,48.0,32.6,29.99,WNW,292,3.5,3.7,55,0.00,FEW,,0.00,0.0,WeatherDisplay:10.37,2013-02-11 19:06:00,
2013-02-11 21:11:00,47.8,32.4,30.00,NNW,338,6.9,6.9,55,0.00,FEW,,0.00,0.0,WeatherDisplay:10.37,2013-02-11 19:11:00,
2013-02-11 21:16:00,47.8,32.4,29.99,NW,315,6.9,6.9,55,0.00,FEW,,0.00,0.0,WeatherDisplay:10.37,2013-02-11 19:16:00,
2013-02-11 21:21:00,47.8,32.4,29.99,NW,315,8.1,8.1,55,0.00,FEW,,0.00,0.0,WeatherDisplay:10.37,2013-02-11 19:21:00,
2013-02-11 21:26:00,47.8,32.4,30.00,NNW,338,3.6,3.6,55,0.00,FEW,,0.00,0.0,WeatherDisplay:10.37,2013-02-11 19:26:00,
2013-02-11 21:31:00,47.7,32.7,30.00,SSW,202,2.3,0.0,56,0.00,FEW,,0.00,0.0,WeatherDisplay:10.37,2013-02-11 19:31:00,
2013-02-11 21:36:00,47.5,32.6,30.00,SSE,158,0.0,0.0,56,0.00,FEW,,0.39,0.0,WeatherDisplay:10.37,2013-02-11 19:36:00,
2013-02-11 21:41:00,47.3,32.4,30.00,NNW,338,0.0,0.0,56,0.78,RA,,0.78,0.0,WeatherDisplay:10.37,2013-02-11 19:41:00,
2013-02-11 21:46:00,47.1,32.2,30.00,ENE,68,0.0,0.0,56,0.78,RA,,0.78,0.0,WeatherDisplay:10.37,2013-02-11 19:46:00,
2013-02-11 21:51:00,46.9,32.5,30.00,ENE,68,1.6,1.6,57,0.78,RA,,0.78,0.0,WeatherDisplay:10.37,2013-02-11 19:51:00,
2013-02-11 21:56:00,46.9,32.5,30.00,SE,135,0.0,0.0,57,0.78,RA,,0.78,0.0,WeatherDisplay:10.37,2013-02-11 19:56:00,
2013-02-11 22:01:00,46.8,32.3,30.00,ESE,112,0.0,0.0,57,0.78,RA,,0.78,0.0,WeatherDisplay:10.37,2013-02-11 20:01:00,
2013-02-11 22:06:00,46.6,32.1,30.00,East,90,0.0,0.0,57,0.78,RA,,0.78,0.0,WeatherDisplay:10.37,2013-02-11 20:06:00,
2013-02-11 22:11:00,46.6,32.1,30.00,East,90,0.0,0.0,57,0.78,CLR,,0.78,0.0,WeatherDisplay:10.37,2013-02-11 20:11:00,
2013-02-11 22:16:00,46.4,32.4,30.00,NNW,338,1.6,1.6,58,0.78,CLR,,0.78,0.0,WeatherDisplay:10.37,2013-02-11 20:16:00,
2013-02-11 22:21:00,46.2,32.2,30.00,North,0,0.0,0.0,58,0.78,CLR,,0.78,0.0,WeatherDisplay:10.37,2013-02-11 20:21:00,
2013-02-11 22:26:00,46.2,32.7,30.00,ENE,68,0.0,0.0,59,0.78,CLR,,0.78,0.0,WeatherDisplay:10.37,2013-02-11 20:26:00,
2013-02-11 22:31:00,46.2,32.7,30.00,NE,45,1.1,1.1,59,0.78,CLR,,0.78,0.0,WeatherDisplay:10.37,2013-02-11 20:31:00,
2013-02-11 22:36:00,46.0,32.5,29.99,North,0,1.8,1.8,59,0.78,CLR,,0.78,0.0,WeatherDisplay:10.37,2013-02-11 20:36:00,
2013-02-11 22:41:00,46.0,32.9,30.00,North,0,1.1,1.1,60,0.00,CLR,,0.78,0.0,WeatherDisplay:10.37,2013-02-11 20:41:00,
2013-02-11 22:46:00,46.2,32.7,30.00,North,0,0.0,0.0,59,0.00,CLR,,0.78,0.0,WeatherDisplay:10.37,2013-02-11 20:46:00,
2013-02-11 22:51:00,46.2,32.7,30.00,NW,315,0.0,0.0,59,0.00,CLR,,0.78,0.0,WeatherDisplay:10.37,2013-02-11 20:51:00,
2013-02-11 22:56:00,46.0,32.5,30.00,NE,45,3.5,3.5,59,0.00,CLR,,0.78,0.0,WeatherDisplay:10.37,2013-02-11 20:56:00,
2013-02-11 23:01:00,45.3,32.2,30.00,ENE,68,3.5,3.5,60,0.00,CLR,,0.78,0.0,WeatherDisplay:10.37,2013-02-11 21:01:00,
2013-02-11 23:06:00,44.6,31.6,30.00,NNE,22,1.1,1.1,60,0.00,CLR,,0.78,0.0,WeatherDisplay:10.37,2013-02-11 21:06:00,
2013-02-11 23:11:00,44.4,31.8,30.00,NNW,338,0.0,0.0,61,0.00,CLR,,0.78,0.0,WeatherDisplay:10.37,2013-02-11 21:11:00,
2013-02-11 23:16:00,44.2,31.6,30.00,NNW,338,1.1,1.1,61,0.00,CLR,,0.78,0.0,WeatherDisplay:10.37,2013-02-11 21:16:00,
2013-02-11 23:21:00,44.4,32.2,30.00,NNE,22,3.5,3.5,62,0.00,CLR,,0.78,0.0,WeatherDisplay:10.37,2013-02-11 21:21:00,
2013-02-11 23:26:00,44.4,32.2,30.00,ENE,68,0.0,0.0,62,0.00,CLR,,0.78,0.0,WeatherDisplay:10.37,2013-02-11 21:26:00,
2013-02-11 23:31:00,44.4,32.2,30.00,SSE,158,1.3,1.3,62,0.00,CLR,,0.78,0.0,WeatherDisplay:10.37,2013-02-11 21:31:00,
2013-02-11 23:36:00,44.6,32.4,30.00,SSE,158,3.5,0.0,62,0.00,CLR,,0.78,0.0,WeatherDisplay:10.37,2013-02-11 21:36:00,
2013-02-11 23:41:00,44.6,32.8,30.00,East,90,0.0,0.0,63,0.00,CLR,,0.78,0.0,WeatherDisplay:10.37,2013-02-11 21:41:00,
2013-02-11 23:46:00,44.6,32.8,30.00,ENE,68,0.0,0.7,63,0.00,CLR,,0.78,0.0,WeatherDisplay:10.37,2013-02-11 21:46:00,
2013-02-11 23:51:00,44.4,32.2,30.00,North,0,2.3,0.0,62,0.00,CLR,,0.78,0.0,WeatherDisplay:10.37,2013-02-11 21:51:00,
2013-02-11 23:56:00,44.2,32.4,30.00,ENE,68,0.0,0.3,63,0.00,CLR,,0.78,0.0,WeatherDisplay:10.37,2013-02-11 21:56:00,